This is the latest recevied weather packets stored in our database for station/object KN6WGU. If no packets are shown the sender has not sent any weather packets the latest 10 day(s).
| Time | Temp. | Humidity | Pressure | Rain* | Wind** | Luminosity | Snow |
|---|---|---|---|---|---|---|---|
| 1777688769 | 4.44° C | 93% | 1009.6 hPa | 3.05 mm | - | 0 W/m² | - |
| 1777688467 | 4.44° C | 92% | 1009.5 hPa | 6.1 mm | - | 0 W/m² | - |
| 1777688164 | 4.44° C | 92% | 1009.6 hPa | 16.76 mm | - | 0 W/m² | - |
| 1777687861 | 5° C | 90% | 1009.9 hPa | 19.81 mm | - | 0 W/m² | - |
| 1777687558 | 6.11° C | 89% | 1009.9 hPa | 8.89 mm | - | 0 W/m² | - |
| 1777687255 | 6.11° C | 88% | 1009.4 hPa | 1.78 mm | - | 0 W/m² | - |
| 1777686953 | 6.67° C | 88% | 1009.3 hPa | 0 mm | - | 0 W/m² | - |
| 1777686649 | 6.11° C | 88% | 1009.1 hPa | 0 mm | - | 0 W/m² | - |
| 1777686346 | 6.11° C | 88% | 1009 hPa | 0 mm | - | 0 W/m² | - |
| 1777686043 | 6.11° C | 88% | 1008.8 hPa | 0 mm | - | 0 W/m² | - |
| 1777685738 | 6.11° C | 88% | 1009 hPa | 0 mm | - | 0 W/m² | - |
| 1777685435 | 6.11° C | 87% | 1008.6 hPa | 0 mm | - | 0 W/m² | - |
| 1777685132 | 6.11° C | 87% | 1008.6 hPa | 0 mm | - | 0 W/m² | - |
| 1777684830 | 6.67° C | 87% | 1008.7 hPa | 0 mm | - | 0 W/m² | - |
| 1777684527 | 6.67° C | 86% | 1008.7 hPa | 0 mm | - | 0 W/m² | - |
| 1777684223 | 6.11° C | 86% | 1008.5 hPa | 0 mm | - | 0 W/m² | - |
| 1777683921 | 6.67° C | 86% | 1008.5 hPa | 0 mm | - | 0 W/m² | - |
| 1777683616 | 6.67° C | 85% | 1008.5 hPa | 0 mm | - | 0 W/m² | - |
| 1777683315 | 6.11° C | 85% | 1008.7 hPa | 0 mm | - | 0 W/m² | - |
| 1777683012 | 6.11° C | 84% | 1008.3 hPa | 0 mm | - | 0 W/m² | - |
| 1777682707 | 6.11° C | 84% | 1008.4 hPa | 0 mm | - | 0 W/m² | - |
| 1777682404 | 6.11° C | 84% | 1008.4 hPa | 0 mm | - | 0 W/m² | - |
| 1777682102 | 6.11° C | 83% | 1008.4 hPa | 0 mm | - | 1 W/m² | - |
| 1777681798 | 6.67° C | 83% | 1008.3 hPa | 0 mm | - | 1 W/m² | - |
| 1777681495 | 6.67° C | 82% | 1008.2 hPa | 0 mm | - | 2 W/m² | - |
* Rain latest hour (hover to see other rain measurements)
** Current wind speed in m/s (hover to see current wind gust speed)